Weather History for Roxboro, NC

Change the Weather History Date:

Tuesday, October 19, 2010

  Actual Average Record
Temperature  
Mean Temperature 58 °F -  
Max Temperature 71 °F 69 °F 85 °F (1963)
Min Temperature 46 °F 43 °F 28 °F (1976)
Degree Days  
Heating Degree Days 6    
Growing Degree Days 8 (Base 50)    
Moisture  
Dew Point 51 °F    
Average Humidity 85    
Maximum Humidity 100    
Minimum Humidity 53    
Precipitation  
Precipitation 0.00 in - - ()
Sea Level Pressure  
Sea Level Pressure 29.90 in    
Wind  
Wind Speed 1 mph (NNE)    
Max Wind Speed 6 mph    
Max Gust Speed -    
Visibility 9 miles    
Events      
Averages and records for this station are not official NWS values.
T = Trace of Precipitation, MM = Missing Value Source: NWS Daily Summary

Daily Weather History Graph

Daily Weather History Graph

Search for Another Location

Airport:

Trip Planner

Search our weather history database for the weather conditions in past years. The results will help you decide how hot, cold, wet, or windy it might be!

Date:

Astronomy

Oct. 19, 2010 Rise Set
Actual Time 7:26 AM EDT 6:34 PM EDT
Civil Twilight 7:00 AM EDT 7:00 PM EDT
Nautical Twilight 6:30 AM EDT 7:30 PM EDT
Astronomical Twilight 6:00 AM EDT 8:00 PM EDT
Moon 4:39 PM EDT (10/19) 4:15 AM EDT (10/19)
Length of Visible Light 12h 00m
Length of Day
11h 08m
Waxing Gibbous, 89% of the Moon is Illuminated
Oct 19
Waxing Gibbous
Oct 22
Full
Oct 30
Last Quarter
Nov 6
New
Nov 13
First Quarter

Hourly Weather History & Observations

Time (EDT) Temp. Dew Point Humidity Pressure Visibility Wind Dir Wind Speed Gust Speed Precip Events Conditions
12:02 AM 50.0 °F 50.0 °F 100% 29.91 in 10.0 mi Calm Calm - N/A   Clear
12:23 AM 48.2 °F 48.2 °F 100% 29.91 in 7.0 mi Calm Calm - N/A   Clear
12:42 AM 48.2 °F 48.2 °F 100% 29.90 in 10.0 mi Calm Calm - N/A   Clear
1:02 AM 48.2 °F 48.2 °F 100% 29.89 in 10.0 mi Calm Calm - N/A   Clear
1:22 AM 48.2 °F 48.2 °F 100% 29.89 in 10.0 mi Calm Calm - N/A   Clear
1:44 AM 48.2 °F 48.2 °F 100% 29.89 in 10.0 mi Calm Calm - N/A   Clear
2:02 AM 50.0 °F 50.0 °F 100% 29.88 in 10.0 mi Calm Calm - N/A   Clear
2:22 AM 50.0 °F 50.0 °F 100% 29.88 in 7.0 mi Calm Calm - N/A   Clear
2:42 AM 48.2 °F 48.2 °F 100% 29.87 in 10.0 mi Calm Calm - N/A   Clear
3:01 AM 48.2 °F 48.2 °F 100% 29.87 in 10.0 mi Calm Calm - N/A   Clear
3:22 AM 48.2 °F 48.2 °F 100% 29.87 in 10.0 mi Calm Calm - N/A   Clear
3:42 AM 51.8 °F 51.8 °F 100% 29.86 in 10.0 mi Calm Calm - N/A   Clear
4:02 AM 50.0 °F 48.2 °F 94% 29.86 in 10.0 mi Calm Calm - N/A   Clear
4:22 AM 48.2 °F 48.2 °F 100% 29.86 in 10.0 mi Calm Calm - N/A   Clear
4:42 AM 48.2 °F 48.2 °F 100% 29.86 in 10.0 mi Calm Calm - N/A   Clear
5:02 AM 48.2 °F 48.2 °F 100% 29.87 in 5.0 mi Calm Calm - N/A   Clear
5:22 AM 48.2 °F 48.2 °F 100% 29.87 in 4.0 mi Calm Calm - N/A   Clear
5:42 AM 48.2 °F 48.2 °F 100% 29.87 in 10.0 mi Calm Calm - N/A   Clear
6:02 AM 48.2 °F 48.2 °F 100% 29.87 in 5.0 mi Calm Calm - N/A   Clear
6:22 AM 46.4 °F 46.4 °F 100% 29.88 in 10.0 mi Calm Calm - N/A   Clear
6:42 AM 46.4 °F 46.4 °F 100% 29.88 in 4.0 mi Calm Calm - N/A   Clear
7:02 AM 46.4 °F 46.4 °F 100% 29.89 in 7.0 mi Calm Calm - N/A   Clear
7:22 AM 46.4 °F 46.4 °F 100% 29.89 in 0.5 mi Calm Calm - N/A   Unknown
7:42 AM 46.4 °F 46.4 °F 100% 29.90 in 1.0 mi Calm Calm - N/A   Unknown
8:02 AM 46.4 °F 46.4 °F 100% 29.91 in 3.0 mi Calm Calm - N/A   Clear
8:22 AM 46.4 °F 46.4 °F 100% 29.92 in 7.0 mi Calm Calm - N/A   Clear
8:42 AM 48.2 °F 48.2 °F 100% 29.93 in 10.0 mi Calm Calm - N/A   Clear
9:02 AM 53.6 °F 53.6 °F 100% 29.93 in 10.0 mi Calm Calm - N/A   Clear
9:22 AM 55.4 °F 53.6 °F 94% 29.94 in 10.0 mi Calm Calm - N/A   Clear
9:42 AM 57.2 °F 53.6 °F 88% 29.94 in 10.0 mi North 5.8 mph - N/A   Clear
10:02 AM 59.0 °F 53.6 °F 82% 29.94 in 10.0 mi North 3.5 mph - N/A   Clear
10:22 AM 60.8 °F 55.4 °F 82% 29.94 in 10.0 mi ENE 3.5 mph - N/A   Clear
10:42 AM 62.6 °F 53.6 °F 72% 29.94 in 10.0 mi ENE 5.8 mph - N/A   Clear
11:02 AM 62.6 °F 53.6 °F 72% 29.94 in 10.0 mi Calm Calm - N/A   Clear
11:22 AM 64.4 °F 53.6 °F 68% 29.94 in 10.0 mi Calm Calm - N/A   Clear
11:42 AM 66.2 °F 55.4 °F 68% 29.94 in 10.0 mi Calm Calm - N/A   Clear
12:02 PM 66.2 °F 53.6 °F 64% 29.94 in 10.0 mi North 3.5 mph - N/A   Clear
12:22 PM 66.2 °F 55.4 °F 68% 29.93 in 10.0 mi NNE 4.6 mph - N/A   Clear
12:42 PM 66.2 °F 55.4 °F 68% 29.92 in 10.0 mi NE 4.6 mph - N/A   Clear
1:02 PM 66.2 °F 55.4 °F 68% 29.92 in 10.0 mi Calm Calm - N/A   Clear
1:21 PM 68.0 °F 55.4 °F 64% 29.92 in 10.0 mi NNW 4.6 mph - N/A   Clear
1:42 PM 69.8 °F 55.4 °F 60% 29.91 in 10.0 mi NNW 3.5 mph - N/A   Clear
2:02 PM 69.8 °F 55.4 °F 60% 29.90 in 10.0 mi Calm Calm - N/A   Clear
2:22 PM 69.8 °F 55.4 °F 60% 29.90 in 10.0 mi North 3.5 mph - N/A   Clear
3:22 PM 69.8 °F 53.6 °F 56% 29.88 in 10.0 mi Calm Calm - N/A   Clear
3:42 PM 71.6 °F 53.6 °F 53% 29.88 in 10.0 mi Calm Calm - N/A   Clear
4:02 PM 71.6 °F 53.6 °F 53% 29.88 in 10.0 mi Calm Calm - N/A   Clear
4:22 PM 71.6 °F 53.6 °F 53% 29.88 in 10.0 mi Calm Calm - N/A   Clear
4:42 PM 69.8 °F 55.4 °F 60% 29.88 in 10.0 mi ENE 3.5 mph - N/A   Clear
5:02 PM 69.8 °F 55.4 °F 60% 29.88 in 10.0 mi NE 4.6 mph - N/A   Clear
5:22 PM 69.8 °F 55.4 °F 60% 29.88 in 10.0 mi ENE 4.6 mph - N/A   Clear
5:42 PM 68.0 °F 55.4 °F 64% 29.88 in 10.0 mi NE 4.6 mph - N/A   Clear
6:02 PM 66.2 °F 57.2 °F 73% 29.87 in 10.0 mi Calm Calm - N/A   Clear
6:22 PM 66.2 °F 57.2 °F 73% 29.87 in 10.0 mi East 3.5 mph - N/A   Clear
6:42 PM 62.6 °F 57.2 °F 82% 29.88 in 10.0 mi North 3.5 mph - N/A   Clear
7:02 PM 60.8 °F 55.4 °F 82% 29.88 in 10.0 mi NE 4.6 mph - N/A   Clear
7:22 PM 62.6 °F 55.4 °F 77% 29.89 in 10.0 mi Calm Calm - N/A   Clear
7:42 PM 60.8 °F 55.4 °F 82% 29.89 in 10.0 mi Calm Calm - N/A   Clear
8:02 PM 59.0 °F 55.4 °F 88% 29.90 in 10.0 mi Calm Calm - N/A   Clear
8:22 PM 57.2 °F 55.4 °F 94% 29.90 in 10.0 mi Calm Calm - N/A   Clear
8:42 PM 57.2 °F 55.4 °F 94% 29.90 in 7.0 mi Calm Calm - N/A   Clear
9:02 PM 57.2 °F 55.4 °F 94% 29.90 in 7.0 mi Calm Calm - N/A   Clear
9:22 PM 55.4 °F 55.4 °F 100% 29.90 in 7.0 mi Calm Calm - N/A   Clear
9:42 PM 55.4 °F 55.4 °F 100% 29.90 in 7.0 mi Calm Calm - N/A   Clear
10:02 PM 55.4 °F 55.4 °F 100% 29.91 in 5.0 mi Calm Calm - N/A   Clear
10:22 PM 55.4 °F 55.4 °F 100% 29.91 in 4.0 mi Calm Calm - N/A   Clear
10:42 PM 55.4 °F 55.4 °F 100% 29.92 in 1.8 mi Calm Calm - N/A   Unknown
11:03 PM 53.6 °F 53.6 °F 100% 29.92 in 1.0 mi Calm Calm - N/A   Unknown
11:22 PM 53.6 °F 53.6 °F 100% 29.92 in 1.5 mi Calm Calm - N/A   Unknown
11:42 PM 53.6 °F 53.6 °F 100% 29.93 in 3.0 mi Calm Calm - N/A   Mostly Cloudy